Weather History for Eagle, CO

Change the Weather History Date:

Saturday, January 18, 2014

  Actual Average Record
Temperature  
Mean Temperature 18 °F -  
Max Temperature 32 °F 37 °F 49 °F (1986)
Min Temperature 3 °F 9 °F -26 °F (1955)
Degree Days  
Heating Degree Days 48    
Moisture  
Dew Point 8 °F    
Average Humidity 81    
Maximum Humidity 92    
Minimum Humidity 44    
Precipitation  
Precipitation 0.00 in - - ()
Sea Level Pressure  
Sea Level Pressure 30.38 in    
Wind  
Wind Speed 1 mph (ESE)    
Max Wind Speed 6 mph    
Max Gust Speed -    
Visibility 10 miles    
Events      
Averages and records for this station are not official NWS values.
T = Trace of Precipitation, MM = Missing Value Source: NWS Daily Summary

Daily Weather History Graph

Daily Weather History Graph

Search for Another Location

Airport:

Trip Planner

Search our weather history database for the weather conditions in past years. The results will help you decide how hot, cold, wet, or windy it might be!

Date:

Astronomy

Jan. 18, 2014 Rise Set
Actual Time 7:25 AM MST 5:11 PM MST
Civil Twilight 6:55 AM MST 5:40 PM MST
Nautical Twilight 6:22 AM MST 6:13 PM MST
Astronomical Twilight 5:50 AM MST 6:45 PM MST
Moon 7:55 PM MST (1/18) 8:27 AM MST (1/18)
Length of Visible Light 10h 44m
Length of Day
9h 45m
Waning Gibbous, 94% of the Moon is Illuminated
Jan 18
Waning Gibbous
Jan 23
Last Quarter
Jan 30
New
Feb 6
First Quarter
Feb 14
Full

Hourly Weather History & Observations

Time (MST) Temp. Windchill Dew Point Humidity Pressure Visibility Wind Dir Wind Speed Gust Speed Precip Events Conditions
12:15 AM 12.2 °F - 8.6 °F 85% 30.30 in 10.0 mi Calm Calm - N/A   Clear
12:35 AM 14.0 °F - 8.6 °F 79% 30.30 in 10.0 mi Calm Calm - N/A   Clear
12:55 AM 12.2 °F - 8.6 °F 85% 30.31 in 10.0 mi Calm Calm - N/A   Clear
1:15 AM 10.4 °F 4.0 °F 6.8 °F 85% 30.31 in 10.0 mi ESE 3.5 mph - N/A   Clear
1:35 AM 10.4 °F - 6.8 °F 85% 30.32 in 10.0 mi Calm Calm - N/A   Clear
1:55 AM 10.4 °F - 8.6 °F 92% 30.33 in 10.0 mi Calm Calm - N/A   Clear
2:15 AM 10.4 °F 4.0 °F 6.8 °F 85% 30.34 in 10.0 mi ESE 3.5 mph - N/A   Clear
2:35 AM 10.4 °F - 6.8 °F 85% 30.35 in 10.0 mi Calm Calm - N/A   Clear
2:55 AM 8.6 °F - 5.0 °F 85% 30.35 in 10.0 mi Calm Calm - N/A   Clear
3:15 AM 8.6 °F - 6.8 °F 92% 30.35 in 10.0 mi Calm Calm - N/A   Clear
3:35 AM 8.6 °F 0.1 °F 6.8 °F 92% 30.35 in 10.0 mi East 4.6 mph - N/A   Clear
3:55 AM 6.8 °F -0.1 °F 5.0 °F 92% 30.35 in 10.0 mi SE 3.5 mph - N/A   Clear
4:15 AM 8.6 °F - 6.8 °F 92% 30.35 in 10.0 mi Calm Calm - N/A   Clear
4:35 AM 8.6 °F - 5.0 °F 85% 30.35 in 10.0 mi Calm Calm - N/A   Clear
4:55 AM 8.6 °F - 5.0 °F 85% 30.35 in 10.0 mi Calm Calm - N/A   Clear
5:15 AM 6.8 °F - 3.2 °F 85% 30.36 in 10.0 mi Calm Calm - N/A   Clear
5:35 AM 6.8 °F - 5.0 °F 92% 30.37 in 10.0 mi Calm Calm - N/A   Clear
5:55 AM 6.8 °F - 3.2 °F 85% 30.38 in 10.0 mi Calm Calm - N/A   Clear
6:15 AM 6.8 °F - 3.2 °F 85% 30.39 in 10.0 mi Calm Calm - N/A   Clear
6:35 AM 5.0 °F -2.1 °F 3.2 °F 92% 30.40 in 10.0 mi ESE 3.5 mph - N/A   Clear
6:50 AM 5.0 °F - 3.2 °F 92% 30.40 in 10.0 mi Calm Calm - N/A   Clear
7:55 AM 3.2 °F - 1.4 °F 92% 30.42 in 10.0 mi Calm Calm - N/A   Clear
8:55 AM 8.6 °F - 5.0 °F 85% 30.46 in 10.0 mi Calm Calm - N/A   Clear
9:50 AM 12.2 °F - 8.6 °F 85% 30.47 in 10.0 mi Calm Calm - N/A   Clear
10:50 AM 15.8 °F - 10.4 °F 79% 30.46 in 10.0 mi Calm Calm - N/A   Clear
11:50 AM 21.2 °F - 14.0 °F 74% 30.43 in 10.0 mi Calm Calm - N/A   Clear
12:50 PM 26.6 °F - 15.8 °F 64% 30.39 in 10.0 mi Calm Calm - N/A   Clear
1:50 PM 28.4 °F - 15.8 °F 59% 30.36 in 10.0 mi Calm Calm - N/A   Clear
2:50 PM 32.0 °F - 12.2 °F 44% 30.36 in 10.0 mi Calm Calm - N/A   Clear
3:50 PM 32.0 °F - 14.0 °F 48% 30.36 in 10.0 mi Calm Calm - N/A   Clear
4:50 PM 32.0 °F - 17.6 °F 55% 30.36 in 10.0 mi Calm Calm - N/A   Clear
5:50 PM 24.8 °F 20.5 °F 15.8 °F 69% 30.38 in 10.0 mi ENE 3.5 mph - N/A   Clear
6:50 PM 19.4 °F - 12.2 °F 74% 30.39 in 10.0 mi Calm Calm - N/A   Clear
7:50 PM 19.4 °F - 12.2 °F 74% 30.39 in 10.0 mi Calm Calm - N/A   Clear
8:50 PM 17.6 °F - 12.2 °F 79% 30.40 in 10.0 mi Calm Calm - N/A   Clear
9:50 PM 15.8 °F - 10.4 °F 79% 30.41 in 10.0 mi Calm Calm - N/A   Clear
10:50 PM 12.2 °F - 8.6 °F 85% 30.43 in 10.0 mi Calm Calm - N/A   Clear
10:55 PM 12.2 °F - 8.6 °F 85% 30.43 in 10.0 mi Calm Calm - N/A   Clear
11:15 PM 10.4 °F - 8.6 °F 92% 30.43 in 10.0 mi Calm Calm - N/A   Clear
11:35 PM 10.4 °F - 6.8 °F 85% 30.43 in 10.0 mi Calm Calm - N/A   Clear
11:55 PM 8.6 °F -1.3 °F 6.8 °F 92% 30.43 in 10.0 mi East 5.8 mph - N/A   Clear